EW1423 Weather Reports


time (UTC)temp
C
wind
direction
speed
KPH
gust
KPH
rain 1hr
cm
rain 24hr
cm
rain mn
cm
humidity
%
barometer
mb
20260503221804 15 338 0.0 1.6 0.00 0.00 0.00 62 1015.3
20260503221304 15 338 0.0 0.0 0.00 0.00 0.00 62 1015.3
20260503220303 15 338 0.0 0.0 0.00 0.00 0.00 61 1015.3
20260503215804 15 338 0.0 0.0 0.00 0.00 0.00 63 1015.3
20260503215304 15 338 0.0 0.0 0.00 0.00 0.00 59 1015.3
20260503214803 15 338 0.0 0.0 0.00 0.00 0.00 60 1015.2
20260503214303 16 338 0.0 0.0 0.00 0.00 0.00 58 1015.2
20260503213803 16 338 0.0 0.0 0.00 0.00 0.00 57 1015.2
20260503213304 16 338 0.0 0.0 0.00 0.00 0.00 57 1015.2
20260503212804 16 338 0.0 0.0 0.00 0.00 0.00 56 1015.2
20260503212305 16 338 0.0 0.0 0.00 0.00 0.00 55 1015.2
20260503211803 16 338 0.0 1.6 0.00 0.00 0.00 54 1014.9
20260503211304 16 338 0.0 1.6 0.00 0.00 0.00 53 1014.9
20260503210803 16 338 0.0 3.2 0.00 0.00 0.00 53 1014.9
20260503210304 16 12 0.0 3.2 0.00 0.00 0.00 54 1014.9
20260503205803 16 350 0.0 3.2 0.00 0.00 0.00 54 1014.9
20260503204804 16 323 0.0 1.6 0.00 0.00 0.00 53 1014.6
20260503204303 16 323 0.0 1.6 0.00 0.00 0.00 53 1014.6
20260503203804 16 327 0.0 3.2 0.00 0.00 0.00 53 1014.6
20260503203304 16 327 0.0 3.2 0.00 0.00 0.00 53 1014.6
20260503202804 16 327 1.6 3.2 0.00 0.00 0.00 53 1014.6
20260503202304 16 328 1.6 4.8 0.00 0.00 0.00 53 1014.6
20260503201304 16 315 1.6 8.0 0.00 0.00 0.00 54 1014.6
20260503200304 17 344 0.0 1.6 0.00 0.00 0.00 52 1013.9
20260503195804 17 344 0.0 1.6 0.00 0.00 0.00 51 1013.9
20260503195304 17 344 0.0 1.6 0.00 0.00 0.00 52 1013.9
20260503194304 17 344 1.6 3.2 0.00 0.00 0.00 50 1013.9
20260503193803 17 344 1.6 3.2 0.00 0.00 0.00 49 1013.9
20260503193304 17 326 0.0 4.8 0.00 0.00 0.00 50 1013.9
20260503192305 18 17 0.0 4.8 0.00 0.00 0.00 49 1013.9
20260503191803 18 28 1.6 8.0 0.00 0.00 0.00 48 1013.9
20260503190804 18 313 1.6 8.0 0.00 0.00 0.00 48 1013.7
20260503185804 18 269 3.2 9.7 0.00 0.00 0.00 46 1013.7
20260503184804 18 301 3.2 11.3 0.00 0.00 0.00 46 1013.7
20260503184303 19 336 3.2 9.7 0.00 0.00 0.00 46 1013.7
20260503183803 19 314 3.2 11.3 0.00 0.00 0.00 46 1013.7
20260503183303 19 293 3.2 9.7 0.00 0.00 0.00 46 1013.7
20260503182804 19 306 3.2 8.0 0.00 0.00 0.00 46 1013.1
20260503182305 20 294 4.8 19.3 0.00 0.00 0.00 45 1013.1
20260503181803 20 312 4.8 19.3 0.00 0.00 0.00 45 1013.1
20260503180804 20 340 4.8 14.5 0.00 0.00 0.00 46 1013.1
20260503180303 21 295 3.2 12.9 0.00 0.00 0.00 51 1013.0
20260503175804 21 316 3.2 8.0 0.00 0.00 0.00 57 1012.8
20260503173804 21 19 1.6 4.8 0.00 0.00 0.00 56 1012.7
20260503173303 21 355 0.0 3.2 0.00 0.00 0.00 56 1012.7
20260503172805 21 266 0.0 1.6 0.00 0.00 0.00 55 1012.7
20260503171804 21 270 1.6 4.8 0.00 0.00 0.00 54 1012.7
20260503171303 22 295 1.6 4.8 0.00 0.00 0.00 54 1012.7
20260503170803 22 292 0.0 3.2 0.00 0.00 0.00 55 1012.7
20260503150304 25 213 0.0 3.2 0.00 0.00 0.00 40 1012.4
20260503140304 27 286 1.6 3.2 0.00 0.00 0.00 36 1012.9
20260503130303 26 115 0.0 3.2 0.00 0.00 0.00 35 1014.0
20260503110804 26 95 3.2 9.7 0.00 0.00 0.00 41 1014.6
20260503090303 22 296 1.6 8.0 0.00 0.00 0.00 50 1015.9
20260503081304 20 111 1.6 4.8 0.00 0.00 0.00 58 1016.2
20260503080803 20 157 1.6 4.8 0.00 0.00 0.00 57 1016.2
20260503080303 20 183 0.0 1.6 0.00 0.00 0.00 59 1016.2
20260503072305 17 183 1.6 3.2 0.00 0.00 0.00 60 1015.9
20260503071804 17 184 1.6 4.8 0.00 0.00 0.00 61 1015.9
20260503070804 16 145 0.0 3.2 0.00 0.00 0.00 63 1016.0
20260503070303 16 145 0.0 3.2 0.00 0.00 0.00 64 1016.0
20260503060303 13 139 1.6 4.8 0.00 0.00 0.00 74 1016.0
20260503054803 12 127 1.6 3.2 0.00 0.00 0.00 80 1016.0
20260503054303 11 146 0.0 1.6 0.00 0.00 0.00 82 1016.0
20260503053804 11 146 1.6 3.2 0.00 0.00 0.00 82 1016.0
20260503053304 10 148 0.0 3.2 0.00 0.00 0.00 84 1016.0
20260503052803 10 181 0.0 1.6 0.00 0.00 0.00 85 1016.0
20260503052305 10 181 0.0 4.8 0.00 0.00 0.00 85 1016.0
20260503051804 10 127 1.6 8.0 0.00 0.00 0.00 86 1016.0
20260503050804 9 163 1.6 8.0 0.00 0.00 0.00 89 1016.0
20260503045811 8 152 1.6 8.0 0.00 0.00 0.00 90 1016.0
20260503045305 8 155 0.0 4.8 0.00 0.00 0.00 91 1016.0
20260503044804 8 125 1.6 3.2 0.00 0.00 0.00 91 1016.0
20260503044304 8 125 0.0 3.2 0.00 0.00 0.00 92 1016.0
20260503043803 8 126 0.0 1.6 0.00 0.00 0.00 92 1016.0
20260503042804 8 126 0.0 0.0 0.00 0.00 0.00 93 1016.0
20260503042305 8 126 0.0 1.6 0.00 0.00 0.00 93 1016.0
20260503041804 7 126 0.0 0.0 0.00 0.00 0.00 94 1016.0
20260503041303 7 126 0.0 0.0 0.00 0.00 0.00 94 1016.0
20260503040803 7 126 0.0 0.0 0.00 0.00 0.00 94 1016.0
20260503035803 7 126 0.0 0.0 0.00 0.00 0.00 93 1016.0
20260503034304 7 126 0.0 0.0 0.00 0.00 0.00 93 1016.0
20260503033304 8 126 0.0 0.0 0.00 0.00 0.00 92 1016.0
20260503032803 8 126 0.0 1.6 0.00 0.00 0.00 93 1016.2
20260503032305 8 126 0.0 0.0 0.00 0.00 0.00 92 1016.2
20260503031304 8 126 0.0 0.0 0.00 0.00 0.00 90 1015.9
20260503030803 8 126 0.0 0.0 0.00 0.00 0.00 90 1015.9
20260503030304 8 126 0.0 0.0 0.00 0.00 0.00 89 1015.9
20260503025319 9 126 0.0 0.0 0.00 0.00 0.00 88 1015.9
20260503024804 9 126 0.0 0.0 0.00 0.00 0.00 88 1015.9
20260503024303 9 126 0.0 1.6 0.00 0.00 0.00 87 1015.9
20260503023303 9 74 0.0 3.2 0.00 0.00 0.00 87 1016.1
20260503022803 9 74 1.6 3.2 0.00 0.00 0.00 88 1016.1
20260503022305 9 74 0.0 4.8 0.00 0.00 0.00 88 1016.1
20260503021803 9 109 0.0 8.0 0.00 0.00 0.00 88 1016.1
20260503021304 9 143 0.0 1.6 0.00 0.00 0.00 89 1016.1
20260503020803 9 143 0.0 3.2 0.00 0.00 0.00 88 1016.1
20260503020304 9 143 0.0 1.6 0.00 0.00 0.00 88 1016.1
20260503015305 9 137 1.6 3.2 0.00 0.00 0.00 87 1016.1
20260503014803 9 137 0.0 1.6 0.00 0.00 0.00 87 1016.1
20260503014303 9 137 1.6 3.2 0.00 0.00 0.00 87 1016.0
20260503013804 9 151 0.0 1.6 0.00 0.00 0.00 87 1016.0
20260503013303 9 153 0.0 1.6 0.00 0.00 0.00 87 1016.0
20260503012803 9 153 0.0 0.0 0.00 0.00 0.00 87 1016.0
20260503012305 9 153 0.0 1.6 0.00 0.00 0.00 87 1016.0
20260503011804 9 153 0.0 0.0 0.00 0.00 0.00 88 1016.0
20260503011304 9 153 0.0 0.0 0.00 0.00 0.00 87 1016.0
20260503010803 9 153 0.0 1.6 0.00 0.00 0.00 87 1016.0
20260503010303 10 153 0.0 0.0 0.00 0.00 0.00 86 1016.0
20260503005804 10 153 0.0 0.0 0.00 0.00 0.00 86 1015.9
20260503004804 10 153 0.0 1.6 0.00 0.00 0.00 86 1016.3
20260503004304 9 153 0.0 1.6 0.00 0.00 0.00 87 1016.3
20260503003803 9 153 0.0 1.6 0.00 0.00 0.00 87 1016.3
20260503003304 9 153 0.0 1.6 0.00 0.00 0.00 87 1016.3
20260503002804 9 153 0.0 1.6 0.00 0.00 0.00 87 1016.3
20260503002305 9 153 0.0 1.6 0.00 0.00 0.00 86 1016.3
20260503001804 9 153 0.0 1.6 0.00 0.00 0.00 86 1016.3
20260503000804 9 153 0.0 0.0 0.00 0.00 0.00 86 1016.3
20260503000304 9 153 0.0 0.0 0.00 0.00 0.00 86 1016.3
20260502235803 9 153 0.0 0.0 0.00 0.00 0.00 86 1016.3
20260502235305 9 153 0.0 0.0 0.00 0.00 0.00 86 1016.3
20260502234803 9 153 0.0 0.0 0.00 0.00 0.00 86 1016.3
20260502233303 10 153 0.0 0.0 0.00 0.00 0.00 84 1016.4
20260502232803 10 153 0.0 0.0 0.00 0.00 0.00 84 1016.4
20260502232305 10 153 0.0 0.0 0.00 0.00 0.00 84 1016.4
20260502231804 10 153 0.0 0.0 0.00 0.00 0.00 83 1016.4
20260502230303 10 153 0.0 0.0 0.00 0.00 0.00 82 1016.4
20260502225803 10 153 0.0 0.0 0.00 0.00 0.00 82 1016.4
20260502224819 10 153 0.0 1.6 0.00 0.00 0.00 82 1016.4
20260502224303 10 153 0.0 0.0 0.00 0.00 0.00 82 1016.4
20260502223804 10 153 0.0 0.0 0.00 0.00 0.00 81 1016.4
20260502223303 10 153 0.0 0.0 0.00 0.00 0.00 80 1016.3